Location: Bégole
(43.1574°N, 0.3291°E)
Time: 01:51:41
(UTC+00:00)

deb Delta 89 - Pass Details

Date: 25 February 2024
Orbit: 714 x 2021 km, 97.5° (Epoch: 13 April)

Event Time Altitude Azimuth Distance (km) Brightness Sun altitude
Rises 05:10:08 0° 6° (N) 5,442 ? -17.6°
Reaches altitude 10° 05:14:38 10° 352° (N) 4,481 ? -16.7°
Maximum altitude 05:21:33 19° 314° (NW) 3,731 ? -15.5°
Enters shadow 05:25:36 15° 288° (WNW) 3,923 ? -14.7°
